THOR ABLESTAR DEB, 13512

Orbit data source: Space-Track

THOR ABLESTAR DEB, 13512 is space debris in LEO originally from a launch on Thu, 29 Jun 1961 UTC launched from the Air Force Eastern Test Range (AFETR). Debris objects in space refer to the collection of defunct objects orbiting the Earth. Examples of debris include non-operational satellites, rocket bodies, and fragments generated from explosions, collisions, or faulty payload assembly.

Loading next visibility...
Identifier
13512, 1961-015KV
Orbit
LEO
Country
Flag of USUS
Related business
Manufacturer
Unknown
Mission
Spacecraft
Bus & Motor
Unknown
Mass
Unknown
Launch date (UTC)
1961-06-29 (65 years ago)
Launch vehicle
Unknown
Launch site
Air Force Eastern Test Range (AFETR)
Object type
Payload
Rocket body
Debris
Shape & HBR
Unknown shape, 0.1 m
Radar Cross Section
Small (<0.1 m²)

Expand to show TLE details & history
Last TLE update: 8 hours ago

TLE from 8 hours ago
0 THOR ABLESTAR DEB
1 13512U 61015KV  26128.24459345  .00010750  00000-0  25579-2 0  9993
2 13512  65.4657 102.5270 0041535 300.6380 166.0250 14.53608936336885
Epoch: 2026-05-08T05:52Z
TLE epoch observation values (Epoch: 2026-05-08T05:52:12.874Z)
Latitude
60.69407°
Longitude
-85.58916°
Altitude
751.879 km
Speed
7.47 km/s
True Right ascension
15h 14m 10s
True Declination
60° 32' 49"
Sunlit
Object was in daylight at epoch
Visualization orbit readout
Latitude
Unknown
Longitude
Unknown
Altitude
Unknown
Speed
Unknown
Apparent Right ascension
Unknown
Apparent Declination
Unknown
Sunlit
N/A
Visualization observer readout
Local Sidereal Time
21:59:34
Azimuth
Unknown
Elevation
Unknown
Doppler factor
Unknown
Orbital elements
Apogee altitude
741.842 km
Perigee altitude
682.941 km
Semi-major axis
7,090.528 km
Eccentricity
0.00415
Inclination
65.4657°
RAAN
102.527°
Arg. of periapsis
300.638°
True anomaly
166.13937°
Mean anomaly
166.025°
Eccentric anomaly
166.08224°
Mean motion
3.63517 °/min
Orbital period
99.03 mins
BSTAR
0.0025579
Loading maneuver chart data...
Computing Atmospheric mass density...
Loading historical data...
Loading historical data...
Loading historical data...
Loading historical data...
Loading historical data...
Loading historical data...
Loading historical data...

Documentation

Showing up to 5 results
|